Regional Weather Roundup
Issued by NWS

Home | Current Version | Previous Version | Text Only | Print | Product List | Glossary On
Versions: 1 2 3 4 5 6 7 8 9 10 11 12 13 14 15 16 17 18 19 20 21 22 23 24 25 26 27 28 29 30 31 32 33 34 35 36 37 38 39 40 41 42 43 44 45 46 47 48 49 50
919
ASUS43 KTOP 302259
RWRKS

WEATHER ROUNDUP FOR KANSAS
NATIONAL WEATHER SERVICE GOODLAND KS
600 PM CDT FRI SEP 30 2016

NOTE:  "FAIR" INDICATES FEW OR NO CLOUDS BELOW 12,000 FEET WITH NO
SIGNIFICANT WEATHER AND/OR OBSTRUCTIONS TO VISIBILITY.

KSZ001>006-013>018-027>032-041>047-010000-
NORTHWEST KANSAS

CITY           SKY/WX    TMP DP  RH WIND       PRES   REMARKS
GOODLAND       SUNNY     73  46  38 SE17      30.12S
HAYS           MOSUNNY   72  43  35 SE9       30.14S
HILL CITY      MOSUNNY   68  49  50 E10       30.14F
RUSSELL        SUNNY     72  43  35 SE6       30.13F
$$

KSZ061>065-074>080-084>089-010000-
SOUTHWEST KANSAS

CITY           SKY/WX    TMP DP  RH WIND       PRES   REMARKS
DODGE CITY     SUNNY     75  46  35 SE12G21   30.12F
ELKHART          N/A     76  48  37 SE20        N/A
GARDEN CITY    SUNNY     77  46  33 SE22      30.09F
GREAT BEND     PTSUNNY   73  45  35 E10       30.13F
LIBERAL        PTSUNNY   75  46  35 SE16      30.11S
$$

KSZ066>073-081>083-090>101-010000-
SOUTHEAST KANSAS

CITY           SKY/WX    TMP DP  RH WIND       PRES   REMARKS
CHANUTE        SUNNY     75  50  41 N5        30.12S
COFFEYVILLE    SUNNY     73  50  44 N6        30.11F
HUTCHINSON     MOSUNNY   68  51  54 CALM      30.14S
MEDICINE LODGE   N/A     72  48  42 E3        30.13F
NEWTON         PTSUNNY   70  48  45 SE6       30.15F
PARSONS        SUNNY     72  51  47 N5        30.12F
WICHITA INTL   PTSUNNY   71  48  43 N6        30.13S
WICHITA JABRA  MOSUNNY   69  51  52 E6        30.14S
WICHITA MCCONL MOSUNNY   72  47  41 SE1       30.13F
WINFIELD       MOSUNNY   73  48  41 VRB3      30.14S
$$

KSZ007>012-019>026-033>040-048>060-102>105-010000-
NORTHEAST KANSAS

CITY           SKY/WX    TMP DP  RH WIND       PRES   REMARKS
CONCORDIA      HAZE      71  46  40 S6        30.15F VSB 1
EMPORIA        CLOUDY    71  49  45 NE5       30.14S
LAWRENCE       SUNNY     73  47  39 N6        30.13S
MANHATTAN      CLOUDY    71  50  47 NE6       30.14S
OLATHE IND     SUNNY     70  48  45 N8        30.13S
OLATHE EXE     SUNNY     72  44  36 N7        30.13S
SALINA         PTSUNNY   73  47  39 E6        30.15S
TOPEKA BILLARD SUNNY     72  50  45 N5        30.13S
TOPEKA FORBES  SUNNY     73  51  46 NE3       30.14S
$$




USA.gov is the U.S. government's official web portal to all federal, state and local government web resources and services.